Date,TemperatureHighF,TemperatureAvgF,TemperatureLowF,DewpointHighF,DewpointAvgF,DewpointLowF,HumidityHigh,HumidityAvg,HumidityLow,PressureMaxIn,PressureMinIn,WindSpeedMaxMPH,WindSpeedAvgMPH,GustSpeedMaxMPH,PrecipitationSumIn
2013-4-1,51.4,40.5,27.7,40.3,26.0,5.8,85,58,25,29.61,29.40,12,4,24,0.02
2013-4-2,37.8,29.4,23.2,13.9,9.9,6.1,67,44,27,29.77,29.60,11,4,22,0.00
2013-4-3,38.5,29.9,23.9,15.2,9.6,4.6,61,43,25,29.99,29.75,11,4,23,0.00
2013-4-4,50.5,35.2,22.1,15.7,13.0,10.2,64,42,22,30.03,29.71,10,3,19,0.00
2013-4-5,55.0,41.8,30.9,20.9,15.8,3.7,63,38,13,29.72,29.51,11,4,22,0.00
2013-4-6,52.2,37.5,25.0,18.6,10.6,-3.7,63,37,10,29.98,29.72,11,4,21,0.00
2013-4-7,60.8,47.3,35.1,39.0,29.9,13.9,72,51,34,29.91,29.65,15,6,29,0.00
2013-4-8,73.8,61.1,48.2,46.2,39.8,29.3,71,48,21,29.80,29.67,8,3,18,0.00
2013-4-9,80.1,68.4,59.4,50.0,43.4,33.5,65,43,20,29.77,29.62,11,3,25,0.00
2013-4-10,82.8,69.2,57.6,60.3,52.8,49.0,91,58,36,29.67,29.50,14,3,27,0.45
2013-4-11,57.9,52.4,43.3,55.9,48.6,42.0,95,87,78,29.65,29.53,12,3,19,0.04
2013-4-12,43.3,40.9,38.7,42.0,33.1,30.4,95,74,69,29.59,29.37,14,5,28,0.34
2013-4-13,54.5,44.2,37.9,35.8,31.4,26.9,76,61,42,29.66,29.49,8,3,18,0.00
2013-4-14,56.3,43.3,35.4,31.2,26.6,21.9,67,53,31,29.82,29.65,11,3,18,0.00
2013-4-15,62.1,49.0,41.2,43.0,35.1,27.2,77,59,48,29.97,29.84,11,4,19,0.00
2013-4-16,65.3,53.6,45.9,53.9,47.3,39.8,86,79,66,29.98,29.82,11,5,22,0.00
2013-4-17,68.4,55.4,44.1,54.9,35.8,24.9,92,52,20,29.96,29.83,8,3,14,0.15
2013-4-18,55.4,52.4,50.2,49.3,41.6,30.8,93,68,42,29.95,29.71,14,6,34,0.05
2013-4-19,66.4,60.3,55.4,60.5,51.9,41.1,87,74,56,29.73,29.31,14,6,31,0.14
2013-4-20,50.2,42.0,33.8,38.0,26.8,18.1,82,56,34,30.01,29.47,11,4,21,0.04
2013-4-21,50.4,38.2,27.1,22.8,18.2,14.4,67,46,25,30.23,30.00,11,3,20,0.00
2013-4-22,54.0,42.5,32.5,28.5,25.2,19.0,80,53,31,30.25,30.09,10,3,21,0.00
2013-4-23,61.3,45.1,35.6,40.5,34.3,27.8,86,68,38,30.09,29.80,8,2,15,0.00
2013-4-24,67.6,51.6,39.9,54.2,44.2,33.0,91,77,53,29.81,29.49,12,4,25,0.31
2013-4-25,59.2,45.8,35.2,35.1,26.9,18.2,78,51,21,29.97,29.69,11,3,23,0.00
2013-4-26,59.4,48.5,38.5,34.2,24.2,13.2,79,42,17,30.12,29.96,8,3,15,0.00
2013-4-27,70.9,55.4,42.1,31.0,24.6,17.4,50,32,15,30.11,29.96,7,2,14,0.00
2013-4-28,66.0,56.2,47.3,41.7,33.5,29.2,73,44,27,29.98,29.84,11,4,27,0.00
2013-4-29,52.5,49.8,46.2,48.7,43.6,30.4,93,80,49,29.86,29.78,9,4,21,0.34
2013-4-30,66.9,54.8,47.8,48.8,42.4,27.3,81,64,43,30.00,29.84,8,3,16,0.01